EW9273 Weather Reports


Display with metric or nautical units.
time (UTC)temp
F
wind
direction
speed
MPH
gust
MPH
rain 1hr
in
rain 24hr
in
rain mn
in
humidity
%
barometer
mb
20260903171514 92 198 6.0 12.0 0.00 0.00 0.00 55 1010.3
20260903171013 92 176 2.0 12.0 0.00 0.00 0.00 55 1010.4
20260903170512 92 145 7.0 12.0 0.00 0.00 0.00 55 1010.5
20260903170011 92 85 4.0 9.0 0.00 0.00 0.00 57 1010.5
20260903165510 92 148 4.0 10.0 0.00 0.00 0.00 57 1010.5
20260903165008 92 243 4.0 11.0 0.00 0.00 0.00 57 1010.5
20260903164507 91 122 2.0 12.0 0.00 0.00 0.00 58 1010.6
20260903164009 91 184 6.0 10.0 0.00 0.00 0.00 59 1010.6
20260903163505 91 109 4.0 11.0 0.00 0.00 0.00 59 1010.6
20260903163004 90 171 6.0 11.0 0.00 0.00 0.00 59 1010.6
20260903162504 90 219 3.0 15.0 0.00 0.00 0.00 61 1010.7
20260903162002 89 217 5.0 15.0 0.00 0.00 0.00 61 1010.8
20260903161501 89 153 7.0 11.0 0.00 0.00 0.00 61 1010.8
20260903161059 89 125 4.0 11.0 0.00 0.00 0.00 62 1010.8
20260903160558 89 223 3.0 9.0 0.00 0.00 0.00 64 1010.7
20260903160126 88 211 3.0 11.0 0.00 0.00 0.00 64 1010.7
20260903155557 88 156 4.0 11.0 0.00 0.00 0.00 65 1010.7
20260903155056 88 216 4.0 11.0 0.00 0.00 0.00 65 1010.8
20260903154607 88 196 5.0 11.0 0.00 0.00 0.00 64 1010.8
20260903154055 87 132 3.0 10.0 0.00 0.00 0.00 66 1010.7
20260903153551 87 173 4.0 10.0 0.00 0.00 0.00 67 1010.7
20260903153051 87 212 3.0 10.0 0.00 0.00 0.00 67 1010.7
20260903152549 86 196 4.0 11.0 0.00 0.00 0.00 68 1010.6
20260903152048 85 227 4.0 12.0 0.00 0.00 0.00 69 1010.7
20260903151546 86 165 6.0 12.0 0.00 0.00 0.00 68 1010.8
20260903151046 86 123 4.0 9.0 0.00 0.00 0.00 70 1010.8
20260903150545 85 239 3.0 10.0 0.00 0.00 0.00 71 1010.7
20260903150044 85 215 6.0 14.0 0.00 0.00 0.00 71 1010.7
20260903145546 85 173 5.0 13.0 0.00 0.00 0.00 71 1010.7
20260903145042 84 136 6.0 13.0 0.00 0.00 0.00 71 1010.8
20260903144542 84 121 4.0 13.0 0.00 0.00 0.00 71 1010.8
20260903144042 84 114 3.0 9.0 0.00 0.00 0.00 72 1010.9
20260903143540 84 235 3.0 8.0 0.00 0.00 0.00 73 1010.8
20260903143052 83 209 3.0 8.0 0.00 0.00 0.00 74 1010.8
20260903142539 83 225 2.0 9.0 0.00 0.00 0.00 75 1010.8
20260903142037 83 213 3.0 7.0 0.00 0.00 0.00 75 1010.8
20260903141554 83 113 3.0 8.0 0.00 0.00 0.00 75 1010.9
20260903141038 82 243 4.0 10.0 0.00 0.00 0.00 75 1010.9
20260903140537 82 188 3.0 11.0 0.00 0.00 0.00 76 1010.9
20260903140039 82 221 5.0 11.0 0.00 0.00 0.00 77 1010.9
20260903135535 81 142 5.0 13.0 0.00 0.00 0.00 77 1010.9
20260903135035 81 244 5.0 13.0 0.00 0.00 0.00 77 1010.9
20260903134537 81 132 5.0 10.0 0.00 0.00 0.00 77 1010.9
20260903134134 81 212 4.0 9.0 0.00 0.00 0.00 78 1010.9
20260903133534 81 207 2.0 7.0 0.00 0.00 0.00 78 1011.0
20260903133035 81 232 4.0 7.0 0.00 0.00 0.00 78 1011.1
20260903132533 81 149 1.0 8.0 0.00 0.00 0.00 78 1011.1
20260903132030 81 200 3.0 10.0 0.00 0.00 0.00 78 1011.1
20260903131538 81 151 5.0 11.0 0.00 0.00 0.00 78 1011.0
20260903131030 81 229 5.0 11.0 0.00 0.00 0.00 78 1011.0
20260903130533 81 152 3.0 7.0 0.00 0.00 0.00 78 1011.0
20260903130035 81 142 3.0 7.0 0.00 0.00 0.00 78 1010.9
20260903125528 80 184 4.0 9.0 0.00 0.00 0.00 78 1010.9
20260903125028 80 92 1.0 8.0 0.00 0.00 0.00 78 1010.9
20260903124526 80 160 2.0 8.0 0.00 0.00 0.00 78 1010.8
20260903124025 80 162 2.0 7.0 0.00 0.00 0.00 78 1010.8
20260903123526 80 163 2.0 7.0 0.00 0.00 0.00 78 1010.7
20260903123032 80 172 2.0 9.0 0.00 0.00 0.00 78 1010.7
20260903122524 80 136 4.0 9.0 0.00 0.00 0.00 78 1010.7
20260903122022 80 190 3.0 8.0 0.00 0.00 0.00 78 1010.6
20260903121522 81 146 3.0 9.0 0.00 0.00 0.00 78 1010.5
20260903121022 80 160 4.0 9.0 0.00 0.00 0.00 78 1010.5
20260903120522 81 134 4.0 10.0 0.00 0.00 0.00 78 1010.5
20260903120022 81 207 4.0 9.0 0.00 0.00 0.00 78 1010.5
20260903115523 81 156 3.0 9.0 0.00 0.00 0.00 78 1010.4
20260903115021 81 144 4.0 12.0 0.00 0.00 0.00 78 1010.4
20260903114521 81 144 4.0 12.0 0.00 0.00 0.00 78 1010.3
20260903114020 81 213 5.0 11.0 0.00 0.00 0.00 78 1010.3
20260903113520 81 196 2.0 10.0 0.00 0.00 0.00 78 1010.3
20260903113027 81 213 2.0 10.0 0.00 0.00 0.00 78 1010.3
20260903112520 81 186 3.0 8.0 0.00 0.00 0.00 78 1010.3
20260903112023 81 137 2.0 9.0 0.00 0.00 0.00 78 1010.3
20260903111528 81 223 3.0 9.0 0.00 0.00 0.00 78 1010.3
20260903111019 81 171 3.0 8.0 0.00 0.00 0.00 78 1010.2
20260903110519 81 165 2.0 9.0 0.00 0.00 0.00 78 1010.2
20260903110018 81 148 3.0 9.0 0.00 0.00 0.00 78 1010.2
20260903105520 81 117 4.0 10.0 0.00 0.00 0.00 78 1010.2
20260903105022 81 130 3.0 10.0 0.00 0.00 0.00 78 1010.2
20260903104518 81 153 1.0 5.0 0.00 0.00 0.00 78 1010.3
20260903104018 81 193 3.0 10.0 0.00 0.00 0.00 78 1010.3
20260903103518 81 161 2.0 10.0 0.00 0.00 0.00 78 1010.3
20260903103018 81 192 4.0 10.0 0.00 0.00 0.00 78 1010.2
20260903102518 81 153 3.0 9.0 0.00 0.00 0.00 78 1010.3
20260903102019 81 172 2.0 11.0 0.00 0.00 0.00 78 1010.3
20260903101533 81 150 3.0 11.0 0.00 0.00 0.00 78 1010.2
20260903101017 81 175 3.0 9.0 0.00 0.00 0.00 78 1010.3
20260903100517 81 161 2.0 10.0 0.00 0.00 0.00 78 1010.2
20260903100017 81 190 4.0 10.0 0.00 0.00 0.00 78 1010.2
20260903095516 81 159 3.0 7.0 0.00 0.00 0.00 79 1010.3
20260903095017 81 135 3.0 7.0 0.00 0.00 0.00 79 1010.3
20260903094516 81 207 2.0 8.0 0.00 0.00 0.00 79 1010.4
20260903094017 81 161 4.0 8.0 0.00 0.00 0.00 79 1010.3
20260903093516 81 180 3.0 9.0 0.00 0.00 0.00 79 1010.2
20260903093016 81 195 2.0 6.0 0.00 0.00 0.00 79 1010.2
20260903092519 81 187 2.0 8.0 0.00 0.00 0.00 79 1010.2
20260903092015 81 144 3.0 7.0 0.00 0.00 0.00 79 1010.2
20260903091516 81 118 2.0 6.0 0.00 0.00 0.00 79 1010.2
20260903091014 81 161 2.0 5.0 0.00 0.00 0.00 79 1010.3
20260903090515 81 162 0.0 6.0 0.00 0.00 0.00 79 1010.3
20260903090015 81 159 2.0 5.0 0.00 0.00 0.00 79 1010.3
20260903085514 81 192 2.0 8.0 0.00 0.00 0.00 79 1010.3
20260903085014 81 132 2.0 8.0 0.00 0.00 0.00 79 1010.3
20260903084513 81 136 1.0 8.0 0.00 0.00 0.00 79 1010.3
20260903084013 81 138 2.0 8.0 0.00 0.00 0.00 79 1010.2
20260903083514 81 160 3.0 9.0 0.00 0.00 0.00 79 1010.2
20260903083022 81 146 4.0 9.0 0.00 0.00 0.00 79 1010.1
20260903082513 81 173 3.0 9.0 0.00 0.00 0.00 79 1010.1
20260903082012 81 120 3.0 10.0 0.00 0.00 0.00 79 1010.2
20260903081524 81 177 3.0 9.0 0.00 0.00 0.00 79 1010.3
20260903081011 81 161 3.0 6.0 0.00 0.00 0.00 78 1010.4
20260903080517 81 142 3.0 6.0 0.00 0.00 0.00 78 1010.4
20260903080011 81 134 2.0 6.0 0.00 0.00 0.00 78 1010.4
20260903075515 81 179 2.0 6.0 0.00 0.00 0.00 78 1010.3
20260903075010 81 146 1.0 6.0 0.00 0.00 0.00 78 1010.3
20260903074510 81 135 0.0 5.0 0.00 0.00 0.00 78 1010.3
20260903074013 81 152 1.0 6.0 0.00 0.00 0.00 78 1010.3
20260903073511 81 178 2.0 6.0 0.00 0.00 0.00 78 1010.3
20260903073014 81 159 1.0 8.0 0.00 0.00 0.00 78 1010.4
20260903072509 81 173 1.0 8.0 0.00 0.00 0.00 77 1010.3
20260903072011 81 136 2.0 7.0 0.00 0.00 0.00 77 1010.3
20260903071508 81 175 2.0 7.0 0.00 0.00 0.00 77 1010.2
20260903071007 81 144 2.0 8.0 0.00 0.00 0.00 77 1010.2
20260903070507 81 165 1.0 8.0 0.00 0.00 0.00 77 1010.1
20260903070006 81 140 2.0 7.0 0.00 0.00 0.00 76 1010.2
20260903065506 81 153 2.0 7.0 0.00 0.00 0.00 76 1010.3
20260903065005 81 144 2.0 7.0 0.00 0.00 0.00 76 1010.3
20260903064505 82 114 1.0 9.0 0.00 0.00 0.00 76 1010.4
20260903064004 82 213 2.0 9.0 0.00 0.00 0.00 76 1010.4
20260903063504 82 180 1.0 8.0 0.00 0.00 0.00 75 1010.5
20260903063003 82 217 2.0 8.0 0.00 0.00 0.00 75 1010.5
20260903062502 82 151 2.0 8.0 0.00 0.00 0.00 75 1010.5
20260903062002 82 162 1.0 9.0 0.00 0.00 0.00 74 1010.5
20260903061502 82 124 3.0 9.0 0.00 0.00 0.00 74 1010.6
20260903061002 82 143 1.0 8.0 0.00 0.00 0.00 74 1010.6
20260903060600 82 103 1.0 7.0 0.00 0.00 0.00 73 1010.6
20260903060115 83 159 2.0 7.0 0.00 0.00 0.00 73 1010.7
20260903060002 83 80 2.0 7.0 0.00 0.00 0.00 73 1010.7
20260903055559 83 173 1.0 8.0 0.00 0.00 0.00 72 1010.7
20260903055058 83 106 2.0 8.0 0.00 0.00 0.00 72 1010.7
20260903054557 83 140 0.0 5.0 0.00 0.00 0.00 71 1010.6
20260903054057 83 133 1.0 5.0 0.00 0.00 0.00 71 1010.7
20260903053556 83 136 1.0 4.0 0.00 0.00 0.00 71 1010.6
20260903053055 83 61 1.0 8.0 0.00 0.00 0.00 70 1010.6
20260903052555 83 92 2.0 8.0 0.00 0.00 0.00 70 1010.5
20260903052053 84 168 3.0 8.0 0.00 0.00 0.00 70 1010.4
20260903051552 84 180 3.0 8.0 0.00 0.00 0.00 69 1010.3
20260903051051 84 141 2.0 9.0 0.00 0.00 0.00 68 1010.3
20260903050550 84 125 4.0 13.0 0.00 0.00 0.00 68 1010.2
20260903050108 84 139 4.0 13.0 0.00 0.00 0.00 67 1010.1
20260903045549 85 175 2.0 14.0 0.00 0.00 0.00 67 1010.0
20260903045048 85 186 6.0 14.0 0.00 0.00 0.00 66 1009.9
20260903044548 85 158 6.0 17.0 0.00 0.00 0.00 65 1009.9
20260903044048 85 171 8.0 17.0 0.00 0.00 0.00 65 1009.9
20260903043549 85 143 3.0 15.0 0.00 0.00 0.00 64 1009.9
20260903043049 86 143 5.0 15.0 0.00 0.00 0.00 63 1009.8
20260903042548 86 145 6.0 14.0 0.00 0.00 0.00 63 1009.8
20260903042047 86 170 6.0 14.0 0.00 0.00 0.00 64 1009.9
20260903041552 86 124 3.0 10.0 0.00 0.00 0.00 65 1009.8
20260903041047 87 131 3.0 10.0 0.00 0.00 0.00 64 1009.8
20260903040547 87 176 2.0 11.0 0.00 0.00 0.00 64 1009.7
20260903040055 87 188 3.0 11.0 0.00 0.00 0.00 63 1009.7
20260903035546 87 125 2.0 10.0 0.00 0.00 0.00 63 1009.7
20260903035046 88 199 3.0 10.0 0.00 0.00 0.00 62 1009.8
20260903034546 88 115 3.0 9.0 0.00 0.00 0.00 62 1009.7
20260903034049 88 117 1.0 9.0 0.00 0.00 0.00 61 1009.6
20260903033547 89 50 2.0 8.0 0.00 0.00 0.00 61 1009.6
20260903033045 89 151 3.0 9.0 0.00 0.00 0.00 60 1009.4
20260903032545 89 146 3.0 9.0 0.00 0.00 0.00 60 1009.4
20260903032045 90 167 3.0 9.0 0.00 0.00 0.00 59 1009.3
20260903031545 90 143 3.0 9.0 0.00 0.00 0.00 59 1009.2
20260903031046 90 117 4.0 9.0 0.00 0.00 0.00 59 1009.1
20260903030544 90 123 2.0 9.0 0.00 0.00 0.00 58 1009.0
20260903030047 91 117 2.0 9.0 0.00 0.00 0.00 57 1008.9
20260903025546 91 105 1.0 6.0 0.00 0.00 0.00 55 1008.9
20260903025044 91 159 2.0 6.0 0.00 0.00 0.00 53 1008.8
20260903024544 91 98 1.0 11.0 0.00 0.00 0.00 53 1008.7
20260903024043 92 5 3.0 11.0 0.00 0.00 0.00 53 1008.5
20260903023544 92 98 5.0 10.0 0.00 0.00 0.00 51 1008.4
20260903023044 93 148 3.0 10.0 0.00 0.00 0.00 49 1008.4
20260903022544 93 126 3.0 10.0 0.00 0.00 0.00 46 1008.3
20260903022043 93 136 2.0 6.0 0.00 0.00 0.00 44 1008.2
20260903021546 93 155 1.0 5.0 0.00 0.00 0.00 44 1008.0
20260903021043 93 161 0.0 2.0 0.00 0.00 0.00 43 1007.9
20260903020546 93 161 0.0 2.0 0.00 0.00 0.00 43 1007.9
20260903020046 93 161 0.0 2.0 0.00 0.00 0.00 42 1007.9
20260903015542 94 161 0.0 2.0 0.00 0.00 0.00 42 1007.8
20260903015044 94 161 0.0 2.0 0.00 0.00 0.00 42 1007.7
20260903014549 94 163 0.0 3.0 0.00 0.00 0.00 42 1007.6
20260903014042 94 163 1.0 3.0 0.00 0.00 0.00 42 1007.6
20260903013544 94 163 0.0 2.0 0.00 0.00 0.00 42 1007.6
20260903013042 95 163 0.0 2.0 0.00 0.00 0.00 41 1007.6
20260903012541 95 163 1.0 3.0 0.00 0.00 0.00 41 1007.6
20260903012041 95 163 0.0 3.0 0.00 0.00 0.00 41 1007.5
20260903011556 95 163 1.0 3.0 0.00 0.00 0.00 41 1007.5
20260903011041 96 163 2.0 4.0 0.00 0.00 0.00 40 1007.4
20260903010540 96 169 1.0 5.0 0.00 0.00 0.00 39 1007.3
20260903010041 96 161 1.0 5.0 0.00 0.00 0.00 39 1007.4
20260903005641 96 170 2.0 5.0 0.00 0.00 0.00 38 1007.3
20260903005042 97 150 2.0 6.0 0.00 0.00 0.00 38 1007.3
20260903004541 97 157 2.0 6.0 0.00 0.00 0.00 38 1007.3
20260903004040 97 169 3.0 6.0 0.00 0.00 0.00 37 1007.5
20260903003540 98 165 3.0 6.0 0.00 0.00 0.00 37 1007.4
20260903003042 98 179 2.0 5.0 0.00 0.00 0.00 36 1007.3
20260903002541 98 127 0.0 8.0 0.00 0.00 0.00 37 1007.4
20260903002042 98 152 2.0 8.0 0.00 0.00 0.00 36 1007.3
20260903001537 98 178 2.0 8.0 0.00 0.00 0.00 37 1007.4
20260903001037 99 116 1.0 8.0 0.00 0.00 0.00 36 1007.4
20260903000537 99 139 4.0 10.0 0.00 0.00 0.00 36 1007.5
20260903000037 99 178 3.0 10.0 0.00 0.00 0.00 36 1007.5
20260902235540 99 94 2.0 6.0 0.00 0.00 0.00 36 1007.5
20260902235037 100 152 0.0 7.0 0.00 0.00 0.00 37 1007.5
20260902234541 100 186 3.0 7.0 0.00 0.00 0.00 36 1007.5
20260902234039 100 105 2.0 6.0 0.00 0.00 0.00 36 1007.5
20260902233537 100 328 1.0 7.0 0.00 0.00 0.00 36 1007.5
20260902233043 100 163 1.0 7.0 0.00 0.00 0.00 36 1007.5
20260902232536 101 150 1.0 5.0 0.00 0.00 0.00 36 1007.6
20260902232036 100 165 0.0 9.0 0.00 0.00 0.00 36 1007.6
20260902231549 100 57 3.0 9.0 0.00 0.00 0.00 36 1007.5
20260902231035 101 80 2.0 7.0 0.00 0.00 0.00 36 1007.6
20260902230535 101 215 0.0 8.0 0.00 0.00 0.00 34 1007.6
20260902230035 101 210 2.0 8.0 0.00 0.00 0.00 35 1007.6
20260902225534 103 185 1.0 5.0 0.00 0.00 0.00 34 1007.6
20260902225034 102 180 2.0 5.0 0.00 0.00 0.00 34 1007.6
20260902224539 101 126 1.0 6.0 0.00 0.00 0.00 34 1007.6
20260902224033 101 128 2.0 10.0 0.00 0.00 0.00 34 1007.6
20260902223533 101 103 4.0 10.0 0.00 0.00 0.00 35 1007.6
20260902223033 102 134 0.0 6.0 0.00 0.00 0.00 34 1007.7
20260902222536 102 300 2.0 6.0 0.00 0.00 0.00 35 1007.7
20260902222032 101 112 2.0 9.0 0.00 0.00 0.00 35 1007.8
20260902221534 102 213 1.0 9.0 0.00 0.00 0.00 35 1007.7
20260902221032 101 88 3.0 9.0 0.00 0.00 0.00 35 1007.7
20260902220530 101 109 4.0 7.0 0.00 0.00 0.00 35 1007.8
20260902220030 101 9 2.0 5.0 0.00 0.00 0.00 34 1007.8
20260902215529 103 5 1.0 3.0 0.00 0.00 0.00 31 1007.9
20260902215030 102 183 1.0 4.0 0.00 0.00 0.00 33 1007.9
20260902214530 103 95 1.0 4.0 0.00 0.00 0.00 32 1007.9
20260902214027 103 316 1.0 5.0 0.00 0.00 0.00 33 1008.0
20260902213526 102 210 2.0 10.0 0.00 0.00 0.00 33 1008.0
20260902213026 100 245 1.0 10.0 0.00 0.00 0.00 35 1008.1
20260902212527 101 191 2.0 6.0 0.00 0.00 0.00 35 1008.1
20260902212024 102 155 3.0 7.0 0.00 0.00 0.00 34 1008.2
20260902211529 102 196 2.0 6.0 0.00 0.00 0.00 34 1008.2
20260902211025 102 5 1.0 6.0 0.00 0.00 0.00 34 1008.3
20260902210522 102 158 0.0 6.0 0.00 0.00 0.00 35 1008.4
20260902210022 101 218 2.0 8.0 0.00 0.00 0.00 35 1008.4
20260902205520 101 221 3.0 9.0 0.00 0.00 0.00 36 1008.5
20260902205020 101 244 3.0 9.0 0.00 0.00 0.00 36 1008.6
20260902204520 101 202 2.0 11.0 0.00 0.00 0.00 37 1008.7
20260902204019 101 241 5.0 11.0 0.00 0.00 0.00 37 1008.8
20260902203518 101 250 5.0 8.0 0.00 0.00 0.00 36 1008.8
20260902203018 102 153 2.0 5.0 0.00 0.00 0.00 36 1008.9
20260902202517 102 355 2.0 8.0 0.00 0.00 0.00 36 1008.9
20260902202016 102 321 3.0 8.0 0.00 0.00 0.00 35 1009.0
20260902201514 100 207 2.0 8.0 0.00 0.00 0.00 37 1009.1
20260902201016 100 161 1.0 11.0 0.00 0.00 0.00 39 1009.3
20260902200515 99 155 4.0 11.0 0.00 0.00 0.00 39 1009.4
20260902200011 99 202 3.0 8.0 0.00 0.00 0.00 39 1009.5
20260902195511 99 120 4.0 9.0 0.00 0.00 0.00 40 1009.7
20260902195010 98 206 3.0 9.0 0.00 0.00 0.00 41 1009.8
20260902194512 99 236 3.0 8.0 0.00 0.00 0.00 39 1009.8
20260902194009 100 171 2.0 8.0 0.00 0.00 0.00 39 1009.9
20260902193509 100 215 1.0 8.0 0.00 0.00 0.00 41 1009.9
20260902193009 97 245 3.0 8.0 0.00 0.00 0.00 43 1010.0
20260902192506 97 224 0.0 5.0 0.00 0.00 0.00 43 1010.1
20260902192006 97 225 2.0 5.0 0.00 0.00 0.00 43 1010.2
20260902191508 98 241 2.0 4.0 0.00 0.00 0.00 42 1010.2
20260902191005 97 9 0.0 3.0 0.00 0.00 0.00 44 1010.4
20260902190508 98 215 1.0 7.0 0.00 0.00 0.00 42 1010.5
20260902190004 98 209 3.0 7.0 0.00 0.00 0.00 43 1010.5
20260902185503 98 230 1.0 7.0 0.00 0.00 0.00 44 1010.5
20260902185002 97 77 2.0 8.0 0.00 0.00 0.00 43 1010.6
20260902184502 97 265 3.0 8.0 0.00 0.00 0.00 42 1010.7
20260902184059 97 223 3.0 7.0 0.00 0.00 0.00 42 1010.8
20260902183558 98 173 4.0 10.0 0.00 0.00 0.00 41 1010.9
20260902183058 97 86 4.0 11.0 0.00 0.00 0.00 44 1011.0
20260902182556 98 244 5.0 11.0 0.00 0.00 0.00 42 1011.2
20260902182055 97 58 2.0 7.0 0.00 0.00 0.00 44 1011.2
20260902181555 98 195 2.0 7.0 0.00 0.00 0.00 44 1011.2
20260902181054 99 151 2.0 4.0 0.00 0.00 0.00 43 1011.3
20260902180552 99 214 0.0 7.0 0.00 0.00 0.00 44 1011.4
20260902180122 97 155 2.0 10.0 0.00 0.00 0.00 45 1011.7
20260902175551 96 198 4.0 10.0 0.00 0.00 0.00 47 1011.7
20260902175052 96 264 3.0 7.0 0.00 0.00 0.00 47 1011.8
20260902174549 95 336 3.0 5.0 0.00 0.00 0.00 48 1011.8
20260902174052 96 111 2.0 5.0 0.00 0.00 0.00 47 1012.0
20260902173550 96 138 1.0 5.0 0.00 0.00 0.00 49 1012.1
20260902173048 95 142 1.0 9.0 0.00 0.00 0.00 48 1012.1
20260902172548 96 180 1.0 7.0 0.00 0.00 0.00 49 1012.1
20260902172044 94 121 2.0 9.0 0.00 0.00 0.00 50 1012.2
20260902171542 94 136 1.0 8.0 0.00 0.00 0.00 53 1012.3